Hourly Weather Kshkar

Today, 13 July, Monday

Time Temperature Precipitation Wind Pressure Humidity
00:00 +18°C° 0 mm 1 mps 748 mmHg 83%
01:00 +18°C° 0 mm 1 mps 748 mmHg 83%
02:00 +18°C° 0 mm 1 mps 748 mmHg 84%
03:00 +16°C° 0 mm 1 mps 748 mmHg 85%
04:00 +17°C° 0 mm 2 mps 748 mmHg 84%
05:00 +18°C° 0 mm 2 mps 748 mmHg 83%
06:00 +19°C° 0 mm 2 mps 747 mmHg 81%
07:00 +21°C° 0 mm 3 mps 747 mmHg 78%
08:00 +22°C° 0 mm 3 mps 747 mmHg 75%
09:00 +25°C° 0 mm 4 mps 747 mmHg 72%
10:00 +26°C° 0.1 mm 3 mps 747 mmHg 72%
11:00 +27°C° 0.1 mm 3 mps 747 mmHg 72%
12:00 +27°C° 0.1 mm 3 mps 747 mmHg 72%
13:00 +28°C° 0 mm 3 mps 747 mmHg 72%
14:00 +28°C° 0 mm 4 mps 747 mmHg 72%
15:00 +29°C° 0 mm 4 mps 747 mmHg 71%
16:00 +29°C° 0.3 mm 4 mps 746 mmHg 75%
17:00 +28°C° 0.3 mm 3 mps 745 mmHg 79%
18:00 +28°C° 0.3 mm 3 mps 745 mmHg 82%
19:00 +27°C° 1 mm 3 mps 745 mmHg 86%
20:00 +26°C° 1 mm 3 mps 745 mmHg 90%
21:00 +25°C° 1 mm 4 mps 744 mmHg 94%
22:00 +24°C° 1 mm 3 mps 744 mmHg 95%
23:00 +24°C° 1 mm 3 mps 744 mmHg 95%

Tomorrow, 14 July, Tuesday

Time Temperature Precipitation Wind Pressure Humidity
00:00 +24°C° 1 mm 2 mps 744 mmHg 96%
01:00 +23°C° 0.4 mm 2 mps 744 mmHg 96%
02:00 +23°C° 0.4 mm 2 mps 744 mmHg 96%
03:00 +21°C° 0.4 mm 2 mps 744 mmHg 96%
04:00 +23°C° 0.2 mm 2 mps 744 mmHg 94%
05:00 +24°C° 0.2 mm 2 mps 744 mmHg 93%
06:00 +25°C° 0.2 mm 3 mps 745 mmHg 91%
07:00 +26°C° 0 mm 3 mps 745 mmHg 85%
08:00 +27°C° 0 mm 3 mps 745 mmHg 79%
09:00 +29°C° 0 mm 4 mps 745 mmHg 74%
10:00 +29°C° 0 mm 4 mps 745 mmHg 70%
11:00 +30°C° 0 mm 5 mps 744 mmHg 67%
12:00 +30°C° 0 mm 5 mps 744 mmHg 63%
13:00 +32°C° 0 mm 6 mps 744 mmHg 64%
14:00 +32°C° 0 mm 6 mps 744 mmHg 65%
15:00 +32°C° 0 mm 6 mps 744 mmHg 65%
16:00 +32°C° 0 mm 5 mps 744 mmHg 69%
17:00 +30°C° 0 mm 5 mps 744 mmHg 73%
18:00 +30°C° 0 mm 4 mps 744 mmHg 77%
19:00 +29°C° 0 mm 4 mps 744 mmHg 79%
20:00 +27°C° 0 mm 4 mps 744 mmHg 80%
21:00 +26°C° 0 mm 4 mps 744 mmHg 82%
22:00 +26°C° 0 mm 4 mps 744 mmHg 82%
23:00 +25°C° 0 mm 5 mps 744 mmHg 82%

Day after tomorrow, 15 July, Wednesday

Time Temperature Precipitation Wind Pressure Humidity
00:00 +25°C° 0 mm 5 mps 744 mmHg 82%
01:00 +23°C° 0.2 mm 4 mps 744 mmHg 79%
02:00 +22°C° 0.2 mm 4 mps 744 mmHg 75%
03:00 +21°C° 0.2 mm 4 mps 743 mmHg 72%
04:00 +21°C° 0 mm 4 mps 743 mmHg 72%
05:00 +22°C° 0 mm 4 mps 743 mmHg 72%
06:00 +22°C° 0 mm 5 mps 743 mmHg 71%
07:00 +23°C° 0 mm 5 mps 743 mmHg 70%
08:00 +25°C° 0 mm 5 mps 744 mmHg 68%
09:00 +27°C° 0 mm 5 mps 744 mmHg 67%
10:00 +27°C° 0 mm 5 mps 744 mmHg 66%
11:00 +28°C° 0 mm 5 mps 743 mmHg 66%
12:00 +29°C° 0 mm 4 mps 743 mmHg 65%
13:00 +29°C° 0 mm 4 mps 743 mmHg 65%
14:00 +29°C° 0 mm 4 mps 743 mmHg 65%
15:00 +30°C° 0 mm 3 mps 743 mmHg 65%
16:00 +29°C° 0.2 mm 3 mps 743 mmHg 70%
17:00 +28°C° 0.2 mm 3 mps 743 mmHg 74%
18:00 +27°C° 0.2 mm 3 mps 743 mmHg 79%
19:00 +26°C° 0 mm 3 mps 743 mmHg 80%
20:00 +25°C° 0 mm 2 mps 742 mmHg 80%
21:00 +24°C° 0 mm 2 mps 742 mmHg 81%
22:00 +23°C° 0.2 mm 2 mps 742 mmHg 83%
23:00 +21°C° 0.2 mm 2 mps 742 mmHg 86%

16 July, Thursday

Time Temperature Precipitation Wind Pressure Humidity
00:00 +21°C° 0.2 mm 2 mps 742 mmHg 89%
01:00 +20°C° 0.1 mm 2 mps 742 mmHg 90%
02:00 +19°C° 0.1 mm 3 mps 742 mmHg 91%
03:00 +19°C° 0.1 mm 3 mps 742 mmHg 93%
04:00 +19°C° 0 mm 3 mps 742 mmHg 90%
05:00 +19°C° 0 mm 3 mps 742 mmHg 88%
06:00 +19°C° 0 mm 3 mps 743 mmHg 85%
07:00 +20°C° 0 mm 3 mps 743 mmHg 80%
08:00 +21°C° 0 mm 4 mps 743 mmHg 74%
09:00 +22°C° 0 mm 4 mps 743 mmHg 69%
10:00 +23°C° 0 mm 4 mps 743 mmHg 65%
11:00 +23°C° 0 mm 4 mps 743 mmHg 60%
12:00 +25°C° 0 mm 4 mps 743 mmHg 56%
13:00 +25°C° 0 mm 5 mps 744 mmHg 57%
14:00 +25°C° 0 mm 5 mps 744 mmHg 58%
15:00 +25°C° 0 mm 5 mps 744 mmHg 59%
16:00 +25°C° 0.1 mm 4 mps 744 mmHg 64%
17:00 +23°C° 0.1 mm 4 mps 744 mmHg 69%
18:00 +22°C° 0.1 mm 3 mps 744 mmHg 74%
19:00 +21°C° 0 mm 3 mps 743 mmHg 77%
20:00 +20°C° 0 mm 2 mps 743 mmHg 80%
21:00 +18°C° 0 mm 2 mps 743 mmHg 82%
22:00 +18°C° 0 mm 2 mps 743 mmHg 84%
23:00 +18°C° 0 mm 1 mps 743 mmHg 86%

17 July, Friday

Time Temperature Precipitation Wind Pressure Humidity
00:00 +16°C° 0 mm 1 mps 743 mmHg 88%
01:00 +18°C° 0 mm 1 mps 743 mmHg 88%
02:00 +18°C° 0 mm 1 mps 743 mmHg 87%
03:00 +18°C° 0 mm 1 mps 743 mmHg 87%
04:00 +19°C° 0 mm 1 mps 743 mmHg 86%
05:00 +19°C° 0 mm 1 mps 743 mmHg 85%
06:00 +20°C° 0 mm 1 mps 743 mmHg 83%
07:00 +20°C° 0 mm 2 mps 743 mmHg 77%
08:00 +21°C° 0 mm 2 mps 743 mmHg 70%
09:00 +24°C° 0 mm 2 mps 743 mmHg 63%
10:00 +24°C° 0 mm 2 mps 743 mmHg 60%
11:00 +25°C° 0 mm 2 mps 743 mmHg 57%
12:00 +26°C° 0 mm 3 mps 743 mmHg 53%
13:00 +26°C° 0 mm 3 mps 743 mmHg 53%
14:00 +26°C° 0 mm 3 mps 742 mmHg 53%
15:00 +26°C° 0 mm 3 mps 742 mmHg 53%
16:00 +25°C° 0 mm 3 mps 742 mmHg 58%
17:00 +25°C° 0 mm 3 mps 742 mmHg 63%
18:00 +24°C° 0 mm 3 mps 742 mmHg 68%
19:00 +21°C° 0 mm 2 mps 742 mmHg 75%
20:00 +19°C° 0 mm 2 mps 742 mmHg 81%
21:00 +17°C° 0 mm 2 mps 741 mmHg 87%
22:00 +18°C° 0 mm 1 mps 741 mmHg 89%
23:00 +16°C° 0 mm 1 mps 741 mmHg 90%

18 July, Saturday

Time Temperature Precipitation Wind Pressure Humidity
00:00 +15°C° 0 mm 1 mps 741 mmHg 92%
01:00 +15°C° 0 mm 1 mps 741 mmHg 93%
02:00 +15°C° 0 mm 1 mps 741 mmHg 94%
03:00 +15°C° 0 mm 1 mps 741 mmHg 94%
04:00 +16°C° 0 mm 1 mps 741 mmHg 92%
05:00 +18°C° 0 mm 1 mps 741 mmHg 90%
06:00 +18°C° 0 mm 1 mps 741 mmHg 88%
07:00 +19°C° 0 mm 2 mps 741 mmHg 82%
08:00 +20°C° 0 mm 2 mps 741 mmHg 77%
09:00 +21°C° 0 mm 3 mps 741 mmHg 71%
10:00 +22°C° 0.1 mm 3 mps 741 mmHg 69%
11:00 +22°C° 0.1 mm 3 mps 741 mmHg 67%
12:00 +24°C° 0.1 mm 3 mps 741 mmHg 66%
13:00 +24°C° 0.1 mm 3 mps 741 mmHg 66%
14:00 +24°C° 0.1 mm 3 mps 741 mmHg 66%
15:00 +24°C° 0.1 mm 3 mps 741 mmHg 67%
16:00 +24°C° 0.4 mm 3 mps 741 mmHg 71%
17:00 +22°C° 0.4 mm 3 mps 741 mmHg 76%
18:00 +21°C° 0.4 mm 3 mps 741 mmHg 81%
19:00 +20°C° 0 mm 3 mps 741 mmHg 86%
20:00 +18°C° 0 mm 3 mps 741 mmHg 90%
21:00 +17°C° 0 mm 3 mps 741 mmHg 95%
22:00 +17°C° 0 mm 3 mps 741 mmHg 96%
23:00 +16°C° 0 mm 3 mps 741 mmHg 96%
Show more